Weather History for Gallup, NM

Change the Weather History Date:

Monday, October 7, 2013

  Actual Average Record
Temperature  
Mean Temperature 51 °F -  
Max Temperature 75 °F 70 °F 82 °F (1979)
Min Temperature 27 °F 32 °F 20 °F (1992)
Degree Days  
Heating Degree Days 14    
Growing Degree Days 1 (Base 50)    
Moisture  
Dew Point 14 °F    
Average Humidity 28    
Maximum Humidity 58    
Minimum Humidity 9    
Precipitation  
Precipitation 0.00 in - - ()
Sea Level Pressure  
Sea Level Pressure 30.08 in    
Wind  
Wind Speed 2 mph (North)    
Max Wind Speed 12 mph    
Max Gust Speed 18 mph    
Visibility 10 miles    
Events      
Averages and records for this station are not official NWS values.
T = Trace of Precipitation, MM = Missing Value Source: NWS Daily Summary

Daily Weather History Graph

Daily Weather History Graph

Search for Another Location

Airport:

Trip Planner

Search our weather history database for the weather conditions in past years. The results will help you decide how hot, cold, wet, or windy it might be!

Date:

Astronomy

Oct. 07, 2013 Rise Set
Actual Time 7:15 AM MDT 6:50 PM MDT
Civil Twilight 6:49 AM MDT 7:15 PM MDT
Nautical Twilight 6:20 AM MDT 7:44 PM MDT
Astronomical Twilight 5:50 AM MDT 8:14 PM MDT
Moon 10:01 AM MDT (10/7) 8:44 PM MDT (10/7)
Length of Visible Light 12h 25m
Length of Day
11h 34m
Waxing Crescent, 9% of the Moon is Illuminated
Oct 7
Waxing Crescent
Oct 11
First Quarter
Oct 18
Full
Oct 26
Last Quarter
Nov 3
New

Hourly Weather History & Observations

Time (MDT) Temp. Windchill Dew Point Humidity Pressure Visibility Wind Dir Wind Speed Gust Speed Precip Events Conditions
12:53 AM 35.1 °F - 12.9 °F 40% 30.19 in 10.0 mi Calm Calm - N/A   Clear
1:53 AM 34.0 °F - 12.9 °F 42% 30.17 in 10.0 mi Calm Calm - N/A   Clear
2:53 AM 32.0 °F 28.7 °F 12.9 °F 45% 30.14 in 10.0 mi ENE 3.5 mph - N/A   Clear
3:53 AM 34.0 °F 31.0 °F 16.0 °F 48% 30.12 in 10.0 mi ENE 3.5 mph - N/A   Clear
4:53 AM 28.9 °F - 14.0 °F 54% 30.14 in 10.0 mi Calm Calm - N/A   Clear
5:53 AM 28.0 °F - 12.9 °F 53% 30.18 in 10.0 mi Calm Calm - N/A   Clear
6:53 AM 27.0 °F - 14.0 °F 58% 30.22 in 10.0 mi Calm Calm - N/A   Clear
7:53 AM 28.9 °F - 10.9 °F 47% 30.28 in 10.0 mi Calm Calm - N/A   Clear
8:53 AM 39.9 °F - 18.0 °F 41% 30.23 in 10.0 mi Calm Calm - N/A   Clear
9:53 AM 51.1 °F - 19.9 °F 29% 30.18 in 10.0 mi Calm Calm - N/A   Clear
10:53 AM 57.9 °F - 19.9 °F 23% 30.14 in 10.0 mi Calm Calm - N/A   Clear
11:53 AM 64.0 °F - 18.0 °F 17% 30.09 in 10.0 mi West 3.5 mph - N/A   Clear
12:53 PM 70.0 °F - 16.0 °F 13% 30.04 in 10.0 mi Variable 3.5 mph - N/A   Clear
1:53 PM 73.0 °F - 16.0 °F 11% 29.98 in 10.0 mi West 10.4 mph - N/A   Clear
2:53 PM 73.9 °F - 14.0 °F 10% 29.96 in 10.0 mi Calm Calm - N/A   Clear
3:53 PM 75.0 °F - 14.0 °F 10% 29.92 in 10.0 mi West 10.4 mph - N/A   Clear
4:53 PM 75.9 °F - 12.9 °F 9% 29.93 in 10.0 mi SW 11.5 mph 18.4 mph N/A   Clear
5:53 PM 73.9 °F - 12.0 °F 9% 29.95 in 10.0 mi WSW 10.4 mph - N/A   Clear
6:53 PM 64.9 °F - 10.9 °F 12% 30.03 in 10.0 mi SW 5.8 mph - N/A   Clear
7:53 PM 55.0 °F - 9.0 °F 16% 30.09 in 10.0 mi Calm Calm - N/A   Clear
8:53 PM 50.0 °F - 10.0 °F 20% 30.06 in 10.0 mi NE 3.5 mph - N/A   Clear
9:53 PM 46.0 °F 43.9 °F 10.9 °F 24% 30.01 in 10.0 mi ENE 4.6 mph - N/A   Clear
10:53 PM 46.9 °F - 10.9 °F 23% 29.95 in 10.0 mi NE 3.5 mph - N/A   Clear
11:53 PM 46.9 °F - 14.0 °F 27% 29.89 in 10.0 mi ENE 4.6 mph - N/A   Clear